Skip Page Navigation
NASA JPL Caltech
NASA Logo - Jet Propulsion Laboratory + View the NASA Portal
+ Near-Earth Object (NEO) Program
Search JPL
JPL Home Earth Solar System Stars & Galaxies Technology
JPL Solar System Dynamics
BODIES ORBITS EPHEMERIDES TOOLS PHYSICAL DATA DISCOVERY FAQ SITE MAP
JPL Small-Body Database Browser
Search: [ help ]  
(2010 FC81)
Classification: Apollo [NEO, PHA]          SPK-ID: 3514551
Ephemeris | Orbit Diagram | Orbital Elements | Physical Parameters | Close-Approach Data ]

[ hide orbit diagram ]
Orbit Diagram
Note: Make sure you have Java enabled on your browser to see the applet. This applet is provided as a 3D orbit visualization tool. The applet was implemented using 2-body methods, and hence should not be used for determining accurate long-term trajectories (over several years or decades) or planetary encounter circumstances. For accurate long-term ephemerides, please instead use our Horizons system.
Orbit Viewer

Additional Notes: the orbits shown in the applet are color coded. The planets are white lines, and the asteroid/comet is a blue line. The bright white line indicates the portion of the orbit that is above the ecliptic plane, and the darker portion is below the ecliptic plane. Likewise for the asteroid/comet orbit, the light blue indicates the portion above the ecliptic plane, and the dark blue the portion below the ecliptic plane.

Orbit Viewer applet originally written and kindly provided by Osamu Ajiki (AstroArts), and further modified by Ron Baalke (JPL).


Orbital Elements at Epoch 2456400.5 (2013-Apr-18.0) TDB
Reference: JPL 31 (heliocentric ecliptic J2000)
 Element Value Uncertainty (1-sigma)   Units 
e .623985656346828 4.6001e-05  
a 2.677141706085359 0.00031061 AU
q 1.006643681480219 6.3598e-06 AU
i 1.681559691888214 9.8571e-05 deg
node 144.4068917186411 0.0004954 deg
peri 63.64028663350791 0.00043094 deg
M 245.5549479532546 0.04298 deg
tp 2456909.127674857997
(2014-Sep-08.62767486)
0.27953 JED
period 1599.946521707979
4.38
0.27844
0.0007623
d
yr
n .2250075206361847 3.9159e-05 deg/d
Q 4.347639730690498 0.00050442 AU
  Orbit Determination Parameters
   # obs. used (total)      176  
   data-arc span      97 days  
   first obs. used      2010-03-30  
   last obs. used      2010-07-05  
   planetary ephem.      DE405  
   SB-pert. ephem.      SB405-CPV-2  
   condition code      5  
   fit RMS      .51753  
   data source      ORB  
   producer      Otto Matic  
   solution date      2011-Sep-14 20:51:49  

Additional Information
 Earth MOID = .025707 AU 
 T_jup = 3.064 
[ show covariance matrix ]

Ephemeris | Orbit Diagram | Orbital Elements | Physical Parameters | Close-Approach Data ]

Physical Parameter Table
Parameter Symbol Value Units Sigma Reference Notes
absolute magnitude H 21.895 mag .42673 31 autocmod 2.5a
rotation period rot_per 0.3263 h n/a Asteroid Lightcurve DataBase (Rev. 2013-May-01) Result based on less than full coverage, so that the period may be wrong by 30 percent or so.
Published Reference List:
[Hicks, M.D.; Mayes, D.; Somers, J. (2010) Astronomer's Telegram 2647. http://www.astronomerstelegram.org]

[ show close-approach data ]
Ephemeris | Orbit Diagram | Orbital Elements | Physical Parameters | Close-Approach Data ]
ABOUT SSD CREDITS/AWARDS PRIVACY/COPYRIGHT GLOSSARY LINKS
FirstGov 2013-May-19 16:46 UT
(server date/time)  
NASA Home Page
Site Manager:   Donald K. Yeomans
Webmaster  Alan B. Chamberlin